Change the Weather History Date:

Wednesday, December 5, 2012

  Actual Average Record
Temperature  
Mean Temperature 58 °F 50 °F  
Max Temperature 64 °F 60 °F 82 °F (1933)
Min Temperature 51 °F 39 °F 21 °F (2009)
Degree Days  
Heating Degree Days 7 16  
Month to date heating degree days 7 75  
Since 1 July heating degree days 368 447  
Cooling Degree Days 0 0  
Month to date cooling degree days 22 0  
Year to date cooling degree days 2991 2417  
Growing Degree Days 8 (Base 50)    
Moisture  
Dew Point 53 °F    
Average Humidity 77    
Maximum Humidity 90    
Minimum Humidity 63    
Precipitation  
Precipitation 0.00 in 0.17 in 1.84 in (1930)
Month to date precipitation T 0.82  
Year to date precipitation 33.91 43.88  
Snow  
Snow 0.00 in - - ()
Month to date snowfall 0.0  
Since 1 July snowfall 0.0  
Snow Depth 0.00 in    
Sea Level Pressure  
Sea Level Pressure 30.16 in    
Wind  
Wind Speed 4 mph (NE)    
Max Wind Speed 13 mph    
Max Gust Speed 17 mph    
Visibility 10 miles    
Events      
T = Trace of Precipitation, MM = Missing Value Source: NWS Daily Summary

Daily Weather History Graph

Daily Weather History Graph

Search for Another Location

Airport or City:

Trip Planner

Search our weather history database for the weather conditions in past years. The results will help you decide how hot, cold, wet, or windy it might be!

Date:

Astronomy

Dec. 05, 2012 Rise Set
Actual Time 7:06 AM CST 5:13 PM CST
Civil Twilight 6:39 AM CST 5:40 PM CST
Nautical Twilight 6:08 AM CST 6:10 PM CST
Astronomical Twilight 5:38 AM CST 6:40 PM CST
Moon 11:46 PM CST 11:45 AM CST
Length of Visible Light 11h 01m
Length of Day
10h 07m
Waning Gibbous, 59% of the Moon is Illuminated
Dec 5
Waning Gibbous
Dec 6
Last Quarter
Dec 13
New
Dec 19
First Quarter
Dec 28
Full

Hourly Weather History & Observations

Time (CST) Temp. Dew Point Humidity Pressure Visibility Wind Dir Wind Speed Gust Speed Precip Events Conditions
12:53 AM 63.0 °F 55.9 °F 78% 30.19 in 10.0 mi NNE 5.8 mph - N/A   Overcast
1:53 AM 62.1 °F 55.9 °F 80% 30.19 in 10.0 mi ENE 8.1 mph - N/A   Overcast
2:40 AM 62.6 °F 55.4 °F 77% 30.20 in 10.0 mi NNE 6.9 mph - N/A   Overcast
2:53 AM 61.0 °F 57.0 °F 87% 30.19 in 10.0 mi NE 5.8 mph - N/A   Overcast
3:53 AM 60.1 °F 55.9 °F 86% 30.18 in 10.0 mi North 6.9 mph - N/A   Overcast
4:53 AM 59.0 °F 55.0 °F 87% 30.18 in 10.0 mi NE 8.1 mph - N/A   Overcast
5:53 AM 59.0 °F 54.0 °F 83% 30.20 in 10.0 mi NE 6.9 mph - N/A   Overcast
6:53 AM 59.0 °F 53.1 °F 81% 30.24 in 10.0 mi NNE 3.5 mph - N/A   Overcast
8:53 AM 57.9 °F 53.1 °F 84% 30.23 in 10.0 mi ENE 4.6 mph - N/A   Overcast
9:53 AM 59.0 °F 53.1 °F 81% 30.23 in 10.0 mi ENE 8.1 mph - N/A   Overcast
10:53 AM 61.0 °F 53.1 °F 75% 30.23 in 10.0 mi Variable 3.5 mph - N/A   Overcast
11:05 AM 60.8 °F 53.6 °F 77% 30.23 in 10.0 mi NE 3.5 mph - N/A   Overcast
11:53 AM 61.0 °F 52.0 °F 72% 30.21 in 10.0 mi NNE 4.6 mph - N/A   Overcast
12:49 PM 62.6 °F 51.8 °F 68% 30.17 in 10.0 mi NNW 5.8 mph - N/A   Overcast
12:53 PM 62.1 °F 52.0 °F 70% 30.17 in 10.0 mi North 4.6 mph - N/A   Overcast
1:38 PM 62.6 °F 51.8 °F 68% 30.15 in 10.0 mi North 5.8 mph - N/A   Overcast
1:53 PM 62.1 °F 51.1 °F 67% 30.14 in 10.0 mi North 4.6 mph - N/A   Overcast
2:53 PM 63.0 °F 51.1 °F 65% 30.12 in 10.0 mi North 4.6 mph - N/A   Overcast
3:53 PM 64.0 °F 51.1 °F 63% 30.12 in 10.0 mi NNE 3.5 mph - N/A   Mostly Cloudy
4:53 PM 62.1 °F 51.1 °F 67% 30.12 in 10.0 mi Calm Calm - N/A   Mostly Cloudy
5:53 PM 61.0 °F 50.0 °F 67% 30.12 in 10.0 mi Calm Calm - N/A   Overcast
6:53 PM 61.0 °F 50.0 °F 67% 30.12 in 10.0 mi Calm Calm - N/A   Overcast
7:53 PM 57.9 °F 51.1 °F 78% 30.11 in 10.0 mi East 3.5 mph - N/A   Overcast
8:53 PM 55.9 °F 50.0 °F 80% 30.10 in 10.0 mi Calm Calm - N/A   Mostly Cloudy
9:53 PM 55.0 °F 50.0 °F 83% 30.09 in 10.0 mi Calm Calm - N/A   Clear
10:30 PM 53.6 °F 50.0 °F 88% 30.09 in 10.0 mi Calm Calm - N/A   Mostly Cloudy
10:53 PM 55.9 °F 52.0 °F 87% 30.09 in 10.0 mi SE 4.6 mph - N/A   Overcast
11:53 PM 55.9 °F 53.1 °F 90% 30.07 in 10.0 mi ESE 5.8 mph - N/A   Mostly Cloudy